This demonstration page uses our WeatherBlox Daily Observations layout. Learn more.

Left ArrowRight Arrow

Hourly Observations for February 15, 2016

Temp ( °F °C ) Dew Point ( °F °C ) Humidity (%) Winds ( mph kmh ) Pressure ( in mb ) Visibility ( mi km ) Precip ( " mm )
12:15 am 00:15 Mostly Cloudy 36 2 28 -2 75 75 NW 12 19 29.94 1014 10 16 0.00 0.00
12:35 am 00:35 Mostly Clear 34 1 27 -3 75 75 NW 12 19 29.94 1014 10 16 0.00 0.00
12:55 am 00:55 Clear 34 1 27 -3 75 75 NW 13 20 29.94 1014 10 16 0.00 0.00
1:15 am 01:15 Clear 34 1 27 -3 75 75 NW 12 19 29.94 1014 10 16 0.00 0.00
1:35 am 01:35 Clear 36 2 27 -3 70 70 NW 14 22 29.94 1014 10 16 0.00 0.00
1:55 am 01:55 Clear 34 1 27 -3 75 75 NW 12 19 29.94 1014 10 16 0.00 0.00
2:15 am 02:15 Clear 34 1 27 -3 75 75 NW 12 19 29.94 1014 10 16 0.00 0.00
2:35 am 02:35 Clear 34 1 27 -3 75 75 NW 8 13 29.94 1014 10 16 0.00 0.00
2:55 am 02:55 Clear 32 0 27 -3 80 80 WNW 8 13 29.97 1015 10 16 0.00 0.00
3:15 am 03:15 Clear 30 -1 27 -3 86 86 WNW 8 13 29.97 1015 10 16 0.00 0.00
3:35 am 03:35 Clear 30 -1 27 -3 86 86 WNW 8 13 29.97 1015 10 16 0.00 0.00
3:55 am 03:55 Clear 28 -2 25 -4 86 86 WNW 6 9 29.97 1015 10 16 0.00 0.00
4:15 am 04:15 Clear 28 -2 25 -4 86 86 WNW 7 11 29.97 1015 10 16 0.00 0.00
4:35 am 04:35 Clear 28 -2 25 -4 86 86 WNW 7 11 29.97 1015 10 16 0.00 0.00
4:55 am 04:55 Clear 28 -2 25 -4 86 86 WNW 7 11 29.97 1015 10 16 0.00 0.00
5:15 am 05:15 Clear 28 -2 25 -4 86 86 WNW 7 11 29.97 1015 10 16 0.00 0.00
5:35 am 05:35 Clear 28 -2 27 -3 93 93 WNW 7 11 29.97 1015 10 16 0.00 0.00
5:55 am 05:55 Clear 28 -2 25 -4 86 86 W 8 13 29.97 1015 10 16 0.00 0.00
6:15 am 06:15 Clear 28 -2 27 -3 93 93 W 7 11 29.97 1015 10 16 0.00 0.00
6:35 am 06:35 Clear 28 -2 27 -3 93 93 W 9 15 29.97 1015 10 16 0.00 0.00
6:55 am 06:55 Clear 30 -1 27 -3 86 86 W 9 15 29.97 1015 10 16 0.00 0.00
7:15 am 07:15 Clear 30 -1 25 -4 80 80 W 6 9 29.97 1015 10 16 0.00 0.00
7:35 am 07:35 Sunny 30 -1 25 -4 80 80 W 7 11 29.97 1015 10 16 0.00 0.00
7:55 am 07:55 Sunny 30 -1 27 -3 86 86 W 9 15 29.97 1015 10 16 0.00 0.00
8:15 am 08:15 Sunny 30 -1 27 -3 86 86 W 8 13 29.97 1015 10 16 0.00 0.00
8:35 am 08:35 Sunny 32 0 27 -3 80 80 WNW 7 11 29.97 1015 10 16 0.00 0.00
8:55 am 08:55 Sunny 34 1 27 -3 75 75 W 9 15 29.94 1014 10 16 0.00 0.00
9:15 am 09:15 Sunny 36 2 27 -3 70 70 W 9 15 29.94 1014 10 16 0.00 0.00
9:35 am 09:35 Sunny 37 3 28 -2 70 70 W 9 15 29.94 1014 10 16 0.00 0.00
9:55 am 09:55 Sunny 39 4 28 -2 65 65 W 10 17 29.91 1013 10 16 0.00 0.00
10:15 am 10:15 Sunny 39 4 28 -2 65 65 W 12 19 29.88 1012 10 16 0.00 0.00
10:35 am 10:35 Sunny 39 4 28 -2 65 65 W 9 15 29.88 1012 10 16 0.00 0.00
10:55 am 10:55 Sunny 43 6 28 -2 57 57 W 8 13 29.88 1012 10 16 0.00 0.00
11:15 am 11:15 Sunny 45 7 28 -2 53 53 WSW 7 11 29.85 1011 10 16 0.00 0.00
11:35 am 11:35 Sunny 43 6 30 -1 61 61 WSW 9 15 29.88 1012 10 16 0.00 0.00
11:55 am 11:55 Sunny 45 7 28 -2 53 53 W 7 11 29.85 1011 10 16 0.00 0.00
12:15 pm 12:15 Sunny 45 7 30 -1 57 57 W 10 17 29.83 1010 10 16 0.00 0.00
12:35 pm 12:35 Sunny 46 8 30 -1 53 53 WSW 12 19 29.83 1010 10 16 0.00 0.00
12:55 pm 12:55 Sunny 45 7 30 -1 57 57 WSW 9 15 29.80 1009 10 16 0.00 0.00
1:15 pm 13:15 Sunny 46 8 30 -1 53 53 SW 12 19 29.80 1009 10 16 0.00 0.00
1:35 pm 13:35 Sunny 46 8 32 0 57 57 SW 10 17 29.80 1009 10 16 0.00 0.00
1:55 pm 13:55 Mostly Sunny 46 8 30 -1 53 53 SW 10 17 29.77 1008 10 16 0.00 0.00
2:15 pm 14:15 Mostly Sunny 46 8 30 -1 53 53 SW 12 19 29.77 1008 10 16 0.00 0.00
2:35 pm 14:35 Mostly Cloudy 46 8 32 0 57 57 WSW 12 19 29.77 1008 10 16 0.00 0.00
2:55 pm 14:55 Mostly Sunny 46 8 32 0 57 57 SW 10 17 29.74 1007 10 16 0.00 0.00
3:15 pm 15:15 Sunny 46 8 34 1 62 62 SW 12 19 29.74 1007 10 16 0.00 0.00
3:35 pm 15:35 Sunny 46 8 34 1 62 62 SW 9 15 29.74 1007 10 16 0.00 0.00
3:55 pm 15:55 Sunny 46 8 34 1 62 62 SW 10 17 29.74 1007 10 16 0.00 0.00
4:15 pm 16:15 Sunny 46 8 34 1 62 62 SW 12 19 29.71 1006 10 16 0.00 0.00
4:35 pm 16:35 Sunny 45 7 34 1 66 66 SW 12 19 29.71 1006 10 16 0.00 0.00
4:55 pm 16:55 Sunny 45 7 32 0 61 61 SW 10 17 29.71 1006 10 16 0.00 0.00
5:15 pm 17:15 Mostly Cloudy 45 7 32 0 61 61 SW 8 13 29.71 1006 10 16 0.00 0.00
5:35 pm 17:35 Partly Cloudy 45 7 32 0 61 61 SW 5 7 29.71 1006 10 16 0.00 0.00
5:55 pm 17:55 Sunny 43 6 32 0 66 66 SSW 5 7 29.71 1006 10 16 0.00 0.00
6:15 pm 18:15 Clear 41 5 32 0 70 70 SSW 6 9 29.68 1005 10 16 0.00 0.00
6:35 pm 18:35 Partly Cloudy 39 4 32 0 75 75 SSW 7 11 29.71 1006 10 16 0.00 0.00
6:55 pm 18:55 Mostly Cloudy 39 4 32 0 75 75 SSW 7 11 29.71 1006 10 16 0.00 0.00
7:15 pm 19:15 Mostly Cloudy 39 4 32 0 75 75 SSW 7 11 29.71 1006 10 16 0.00 0.00
7:35 pm 19:35 Partly Cloudy 39 4 32 0 75 75 SSW 7 11 29.71 1006 10 16 0.00 0.00
7:55 pm 19:55 Mostly Clear 41 5 32 0 70 70 SW 8 13 29.68 1005 10 16 0.00 0.00
8:15 pm 20:15 Clear 41 5 32 0 70 70 SW 10 17 29.68 1005 10 16 0.00 0.00
8:35 pm 20:35 Mostly Clear 39 4 32 0 75 75 WSW 8 13 29.71 1006 10 16 0.00 0.00
8:55 pm 20:55 Clear 43 6 32 0 66 66 W 10 17 29.68 1005 10 16 0.00 0.00
9:15 pm 21:15 Clear 43 6 34 1 71 71 W 9 15 29.68 1005 10 16 0.00 0.00
9:35 pm 21:35 Mostly Clear 43 6 34 1 71 71 W 9 15 29.71 1006 10 16 0.00 0.00
9:55 pm 21:55 Partly Cloudy 43 6 34 1 71 71 WNW 8 13 29.71 1006 10 16 0.00 0.00
10:15 pm 22:15 Mostly Clear 41 5 34 1 76 76 W 12 19 29.74 1007 10 16 0.00 0.00
10:35 pm 22:35 Partly Cloudy 43 6 36 2 76 76 W 14 22 29.71 1006 10 16 0.00 0.00
10:55 pm 22:55 Mostly Cloudy 43 6 34 1 71 71 WNW 14 22 29.71 1006 10 16 0.00 0.00
11:15 pm 23:15 Cloudy 41 5 34 1 76 76 WNW 13 20 29.74 1007 10 16 0.00 0.00
11:35 pm 23:35 Cloudy 43 6 34 1 71 71 NW 17 28 29.74 1007 10 16 0.00 0.00
11:55 pm 23:55 Mostly Cloudy 43 6 34 1 71 71 NW 18 30 29.74 1007 10 16 0.00 0.00

Powered by AerisWeather